Home   Weather   Bangor   Past weeks
Flag for USA

Past Weather in Bangor, Maine, USA — Yesterday and Last 2 Weeks

Now
78 °F

Passing clouds.


Feels Like: 79 °F
Forecast: 74 / 57 °F
Wind: 5 mph from North

Location: Bangor International Airport

Current Time: Sep 21, 2019 at 3:37:44 pm

Latest Report: Sep 21, 2019 at 2:53 pm


Visibility: 10 mi

Pressure: 30.12 "Hg

Humidity: 40%

Dew Point: 52 °F

Location of BangorLocation

Past Weather in Bangor — Graph

°F

Bangor Temperature Yesterday

Maximum temperature yesterday: 77 °F (at 2:53 pm)
Minimum temperature yesterday: 43 °F (at 12:53 am)
Average temperature yesterday: 61 °F

High & Low Weather Summary for the Past Weeks

 TemperatureHumidityPressure
High78 °F (Sep 11, 1:53 pm)100% (Sep 9, 5:53 am)30.53 "Hg (Sep 9, 5:53 am)
Low34 °F (Sep 19, 5:53 am)35% (Sep 13, 1:53 pm)29.62 "Hg (Sep 7, 1:53 pm)
Average58 °F75%30.13 "Hg
* Reported Sep 6 1:53 pm — Sep 21 1:53 pm, Bangor. Weather by CustomWeather, © 2019

Note: Actual official high and low records may vary slightly from our data, if they occured in-between our weather recording intervals... More about our weather records

Advertising

Bangor Weather History for the Previous 24 Hours

Scroll right to see more
 ConditionsComfort  
Time TempWeatherWind HumidityBarometerVisibility
1:53 pm
Sat, Sep 21
76 °FPassing clouds.No wind43%30.13 "Hg10 mi
12:53 pm75 °FPassing clouds.N/A47%30.14 "Hg10 mi
11:53 am74 °FPassing clouds.No wind46%30.16 "Hg10 mi
10:53 am72 °FPassing clouds.8 mph52%30.16 "Hg10 mi
9:53 am71 °FSunny.9 mph57%30.16 "Hg10 mi
8:53 am68 °FSunny.9 mph70%30.16 "Hg10 mi
7:53 am64 °FSunny.5 mph78%30.14 "Hg10 mi
6:53 am56 °FPassing clouds.No wind90%30.12 "Hg10 mi
5:53 am57 °FPassing clouds.No wind87%30.10 "Hg10 mi
4:53 am57 °FClear.No wind90%30.09 "Hg10 mi
3:53 am57 °FClear.No wind87%30.07 "Hg10 mi
2:53 am61 °FPassing clouds.3 mph78%30.07 "Hg10 mi
1:53 am62 °FPassing clouds.5 mph75%30.06 "Hg10 mi
12:53 am63 °FPassing clouds.9 mph73%30.05 "Hg10 mi
11:53 pm
Fri, Sep 20
65 °FPassing clouds.6 mph70%30.05 "Hg10 mi
10:53 pm62 °FPassing clouds.3 mph78%30.05 "Hg10 mi
9:53 pm66 °FPassing clouds.6 mph68%30.03 "Hg10 mi
8:53 pm67 °FPassing clouds.6 mph71%30.02 "Hg10 mi
7:53 pm70 °FPassing clouds.6 mph64%30.01 "Hg10 mi
6:53 pm68 °FPassing clouds.No wind73%30.01 "Hg10 mi
5:53 pm74 °FPassing clouds.6 mph53%30.00 "Hg10 mi
4:53 pm77 °FPassing clouds.7 mph48%29.99 "Hg10 mi
3:53 pm77 °FPassing clouds.9 mph48%30.00 "Hg9 mi
Weather by CustomWeather, © 2019

See weather overview